Time,TemperatureF,DewpointF,PressureIn,WindDirection,WindDirectionDegrees,WindSpeedMPH,WindSpeedGustMPH,Humidity,HourlyPrecipIn,Conditions,Clouds,dailyrainin,SoftwareType,DateUTC
2013-11-27 01:43:00,56.0,-99.9,-100.00,NE,48,3.0,-999.0,-999,-99.99,,,-99.99,,2013-11-27 09:43:00,
2013-11-27 01:54:00,56.0,-99.9,-100.00,NE,48,3.0,-999.0,-999,-99.99,,,-99.99,,2013-11-27 09:54:00,
2013-11-27 02:43:00,60.0,-99.9,-100.00,NE,53,4.0,-999.0,-999,-99.99,,,-99.99,,2013-11-27 10:43:00,
2013-11-27 02:53:00,60.0,-99.9,-100.00,NE,53,4.0,-999.0,-999,-99.99,,,-99.99,,2013-11-27 10:53:00,
2013-11-27 03:42:00,60.0,-99.9,-100.00,NNE,25,4.0,-999.0,-999,-99.99,,,-99.99,,2013-11-27 11:42:00,
2013-11-27 03:53:00,60.0,-99.9,-100.00,NNE,25,4.0,-999.0,-999,-99.99,,,-99.99,,2013-11-27 11:53:00,
2013-11-27 04:42:00,58.0,-99.9,-100.00,NNE,28,3.0,-999.0,-999,-99.99,,,-99.99,,2013-11-27 12:42:00,
2013-11-27 04:52:00,58.0,-99.9,-100.00,NNE,28,3.0,-999.0,-999,-99.99,,,-99.99,,2013-11-27 12:52:00,
2013-11-27 05:42:00,54.0,-99.9,-100.00,NE,35,5.0,-999.0,-999,-99.99,,,-99.99,,2013-11-27 13:42:00,
2013-11-27 05:52:00,54.0,-99.9,-100.00,NE,35,5.0,-999.0,-999,-99.99,,,-99.99,,2013-11-27 13:52:00,
2013-11-27 06:42:00,53.0,-99.9,-100.00,NE,39,6.0,-999.0,-999,-99.99,,,-99.99,,2013-11-27 14:42:00,
2013-11-27 06:53:00,53.0,-99.9,-100.00,NE,39,6.0,-999.0,-999,-99.99,,,-99.99,,2013-11-27 14:53:00,
2013-11-27 07:44:00,54.0,-99.9,-100.00,NE,38,6.0,-999.0,-999,-99.99,,,-99.99,,2013-11-27 15:44:00,
2013-11-27 07:53:00,54.0,-99.9,-100.00,NE,38,6.0,-999.0,-999,-99.99,,,-99.99,,2013-11-27 15:53:00,
2013-11-27 08:43:00,60.0,-99.9,-100.00,NE,36,2.0,-999.0,-999,-99.99,,,-99.99,,2013-11-27 16:43:00,
2013-11-27 08:53:00,60.0,-99.9,-100.00,NE,36,2.0,-999.0,-999,-99.99,,,-99.99,,2013-11-27 16:53:00,
2013-11-27 09:42:00,65.0,-99.9,-100.00,East,87,4.0,-999.0,-999,-99.99,,,-99.99,,2013-11-27 17:42:00,
2013-11-27 09:52:00,65.0,-99.9,-100.00,East,87,4.0,-999.0,-999,-99.99,,,-99.99,,2013-11-27 17:52:00,
2013-11-27 10:43:00,65.0,-99.9,-100.00,SE,136,7.0,-999.0,-999,-99.99,,,-99.99,,2013-11-27 18:43:00,
2013-11-27 10:52:00,65.0,-99.9,-100.00,SE,136,7.0,-999.0,-999,-99.99,,,-99.99,,2013-11-27 18:52:00,
2013-11-27 11:42:00,66.0,-99.9,-100.00,SE,132,12.0,-999.0,-999,-99.99,,,-99.99,,2013-11-27 19:42:00,
2013-11-27 11:53:00,66.0,-99.9,-100.00,SE,132,12.0,-999.0,-999,-99.99,,,-99.99,,2013-11-27 19:53:00,
2013-11-27 12:42:00,67.0,-99.9,-100.00,SE,141,5.0,-999.0,-999,-99.99,,,-99.99,,2013-11-27 20:42:00,
2013-11-27 12:53:00,67.0,-99.9,-100.00,SE,141,5.0,-999.0,-999,-99.99,,,-99.99,,2013-11-27 20:53:00,
2013-11-27 13:43:00,67.0,-99.9,-100.00,East,96,4.0,-999.0,-999,-99.99,,,-99.99,,2013-11-27 21:43:00,
2013-11-27 13:54:00,67.0,-99.9,-100.00,East,96,4.0,-999.0,-999,-99.99,,,-99.99,,2013-11-27 21:54:00,
2013-11-27 14:43:00,65.0,-99.9,-100.00,South,172,5.0,-999.0,-999,-99.99,,,-99.99,,2013-11-27 22:43:00,
2013-11-27 14:52:00,65.0,-99.9,-100.00,South,172,5.0,-999.0,-999,-99.99,,,-99.99,,2013-11-27 22:52:00,
2013-11-27 15:43:00,63.0,-99.9,-100.00,SW,217,3.0,-999.0,-999,-99.99,,,-99.99,,2013-11-27 23:43:00,
2013-11-27 15:53:00,63.0,-99.9,-100.00,SW,217,3.0,-999.0,-999,-99.99,,,-99.99,,2013-11-27 23:53:00,
2013-11-27 16:42:00,62.0,-99.9,-100.00,SW,222,4.0,-999.0,-999,-99.99,,,-99.99,,2013-11-28 00:42:00,
2013-11-27 16:52:00,62.0,-99.9,-100.00,SW,222,4.0,-999.0,-999,-99.99,,,-99.99,,2013-11-28 00:52:00,
2013-11-27 17:42:00,60.0,-99.9,-100.00,West,276,3.0,-999.0,-999,-99.99,,,-99.99,,2013-11-28 01:42:00,
2013-11-27 17:52:00,60.0,-99.9,-100.00,West,276,3.0,-999.0,-999,-99.99,,,-99.99,,2013-11-28 01:52:00,
2013-11-27 18:52:00,57.0,-99.9,-100.00,NW,315,4.0,-999.0,-999,-99.99,,,-99.99,,2013-11-28 02:52:00,
2013-11-27 19:44:00,55.0,-99.9,-100.00,NE,41,4.0,-999.0,-999,-99.99,,,-99.99,,2013-11-28 03:44:00,
2013-11-27 19:53:00,55.0,-99.9,-100.00,NE,41,4.0,-999.0,-999,-99.99,,,-99.99,,2013-11-28 03:53:00,
2013-11-27 20:43:00,55.0,-99.9,-100.00,NNE,28,3.0,-999.0,-999,-99.99,,,-99.99,,2013-11-28 04:43:00,
2013-11-27 20:52:00,55.0,-99.9,-100.00,NNE,28,3.0,-999.0,-999,-99.99,,,-99.99,,2013-11-28 04:52:00,